Location: Arran
(51.9410°N, 101.7372°W)
Time: 13:37:44
(UTC+00:00)

BlueWalker 3 - Pass Details

Date: 29 November 2022
Orbit: 499 x 517 km, 53.2° (Epoch: 30 January)

Event Time Altitude Azimuth Distance (km) Brightness Sun altitude
Rises 01:08:42 0° 260° (W) 2,625 7.1 -21.8°
Reaches altitude 10° 01:10:54 10° 262° (W) 1,736 5.8 -22.2°
Enters shadow 01:14:40 77° 310° (NW) 528 2.0 -22.7°
